sat.trackr.live / text

‹ back to catalog

STARLINK-4037

NORAD 52663 · 2022-053H

PAYLOAD ACTIVE UNKNOWN

§ Identity

Operator
Country
US
Launch date
2022-05-18
Launch site
AFETR
Launch vehicle
Mass (kg)
RCS (m²)

Purposes: comms

External: N2YO · Heavens-Above · Gunter

§ Orbital elements

Epoch: 2026-09-20T00:02:05.415648Z

Period
93.79 min
Inclination
53.1606°
Eccentricity
0.0001104
Mean motion
15.35398753 rev/d
Perigee alt
459.0 km
Apogee alt
460.5 km
Semi-major
6,837.9 km
B*
-2.6198e-5
RAAN
358.1577°
Arg perigee
75.4034°
Mean anomaly
284.7092°
Rev number
24,042

§ Raw data

STARLINK-40371 52663U 22053H   26263.00145157 -.00001294  00000+0 -26198-4 0  99932 52663  53.1606 358.1577 0001104  75.4034 284.7092 15.35398753240423

JSON: /api/v1/satellites/52663 · /tle

For live sub-satellite position, see the globe view (requires WebGL).

§ Visibility from observer

Set your observer location to see the next 7 days of passes ≥ 10°. The values pass through the URL so the page stays shareable.

No JS? Fill the form by hand. The geolocation button needs JavaScript.